EW5925 Weather Reports


time (UTC)temp
C
wind
direction
speed
KPH
gust
KPH
rain 1hr
cm
rain 24hr
cm
rain mn
cm
humidity
%
barometer
mb
20260906124422 19 148 9.7 25.7 0.00 0.03 0.03 76 1019.5
20260906123839 20 165 8.0 24.1 0.00 0.03 0.03 76 1019.5
20260906123404 20 132 6.4 22.5 0.00 0.03 0.03 76 1019.4
20260906122845 20 206 6.4 22.5 0.00 0.03 0.03 76 1019.4
20260906122414 20 130 8.0 19.3 0.00 0.03 0.03 76 1019.3
20260906122120 20 123 8.0 22.5 0.00 0.03 0.03 75 1019.2
20260906121430 20 124 9.7 22.5 0.00 0.03 0.03 75 1019.2
20260906121054 20 134 9.7 20.9 0.00 0.03 0.03 75 1019.1
20260906120916 20 131 11.3 27.4 0.00 0.03 0.03 74 1019.1
20260906115800 20 141 11.3 27.4 0.00 0.03 0.03 75 1019.0
20260906115624 20 123 11.3 27.4 0.00 0.03 0.03 76 1019.0
20260906114737 20 121 12.9 27.4 0.00 0.03 0.03 76 1018.8
20260906114205 20 126 11.3 25.7 0.00 0.03 0.03 76 1018.8
20260906113939 20 102 11.3 25.7 0.00 0.03 0.03 75 1018.7
20260906113446 20 133 11.3 25.7 0.00 0.03 0.03 75 1018.7
20260906112722 20 130 11.3 29.0 0.00 0.03 0.03 75 1018.5
20260906112233 20 115 11.3 29.0 0.00 0.03 0.03 75 1018.5
20260906111707 21 115 12.9 29.0 0.00 0.03 0.03 76 1018.4
20260906111203 21 133 12.9 29.0 0.00 0.03 0.03 77 1018.4
20260906110711 21 153 12.9 30.6 0.00 0.03 0.03 77 1018.3
20260906110200 21 129 12.9 32.2 0.00 0.03 0.03 77 1018.3
20260906105700 21 124 12.9 32.2 0.00 0.03 0.03 78 1018.1
20260906105204 21 110 12.9 30.6 0.00 0.03 0.03 78 1018.1
20260906104647 21 124 12.9 30.6 0.00 0.03 0.03 79 1017.9
20260906104143 21 134 12.9 29.0 0.00 0.03 0.03 80 1017.9
20260906103641 21 96 14.5 30.6 0.00 0.03 0.03 81 1017.7
20260906103203 21 160 14.5 29.0 0.00 0.03 0.03 81 1017.5
20260906103145 21 133 14.5 30.6 0.00 0.03 0.03 81 1017.6
20260906102442 21 98 14.5 30.6 0.00 0.03 0.03 81 1017.4
20260906101938 21 131 14.5 30.6 0.00 0.03 0.03 81 1017.3
20260906101408 21 104 14.5 29.0 0.00 0.03 0.03 81 1017.2
20260906101141 21 146 14.5 29.0 0.00 0.03 0.03 81 1017.2
20260906100142 21 114 14.5 32.2 0.00 0.03 0.03 81 1017.1
20260906095641 21 114 12.9 32.2 0.00 0.03 0.03 81 1016.9
20260906094801 21 150 12.9 33.8 0.00 0.03 0.03 80 1016.7
20260906094255 21 147 14.5 33.8 0.00 0.03 0.03 80 1016.8
20260906093755 21 123 12.9 35.4 0.00 0.03 0.03 80 1016.6
20260906093301 22 124 12.9 35.4 0.00 0.03 0.03 80 1016.3
20260906092755 22 125 12.9 29.0 0.00 0.03 0.03 81 1016.2
20260906092312 22 126 12.9 29.0 0.00 0.03 0.03 81 1016.0
20260906092127 22 130 12.9 24.1 0.00 0.03 0.03 81 1015.9
20260906091918 22 123 11.3 24.1 0.00 0.03 0.03 81 1015.7
20260906091839 22 130 12.9 24.1 0.00 0.03 0.03 81 1015.9
20260906091730 22 140 11.3 24.1 0.00 0.03 0.03 81 1015.8
20260906090856 22 125 11.3 24.1 0.00 0.03 0.03 81 1015.7
20260906090242 22 123 11.3 24.1 0.00 0.03 0.03 81 1015.7
20260906090028 22 135 9.7 24.1 0.00 0.03 0.03 81 1015.6
20260906085759 22 135 9.7 24.1 0.00 0.03 0.03 81 1015.6
20260906085242 22 98 8.0 25.7 0.00 0.03 0.03 81 1015.6
20260906084750 22 122 9.7 25.7 0.00 0.03 0.03 80 1015.5
20260906084241 22 118 8.0 19.3 0.00 0.03 0.03 80 1015.4
20260906083800 22 125 9.7 19.3 0.00 0.03 0.03 80 1015.2
20260906083247 22 191 9.7 19.3 0.00 0.03 0.03 81 1015.0
20260906082735 22 98 6.4 19.3 0.00 0.03 0.03 81 1014.8
20260906082233 22 132 4.8 17.7 0.00 0.03 0.03 81 1014.8
20260906081736 22 113 1.6 17.7 0.00 0.03 0.03 81 1014.6
20260906081243 22 21 0.0 3.2 0.00 0.03 0.03 80 1013.8
20260906080729 22 21 1.6 3.2 0.00 0.03 0.03 80 1013.7
20260906080227 23 21 1.6 6.4 0.00 0.03 0.03 79 1013.6
20260906075725 23 21 1.6 6.4 0.00 0.03 0.03 79 1013.5
20260906075223 23 349 1.6 8.0 0.00 0.03 0.03 78 1013.4
20260906074724 23 349 1.6 9.7 0.00 0.03 0.03 78 1013.3
20260906074215 23 56 1.6 9.7 0.00 0.03 0.03 77 1013.1
20260906073722 23 325 3.2 9.7 0.00 0.03 0.03 76 1013.2
20260906073224 23 352 3.2 9.7 0.00 0.03 0.03 76 1013.1
20260906072938 24 1 1.6 8.0 0.00 0.03 0.03 74 1013.0
20260906072212 24 25 3.2 8.0 0.00 0.03 0.03 74 1013.0
20260906071711 24 25 3.2 11.3 0.00 0.03 0.03 73 1012.9
20260906071213 25 343 4.8 11.3 0.00 0.03 0.03 73 1012.8
20260906070706 25 355 4.8 16.1 0.00 0.03 0.03 72 1012.8
20260906070200 25 3 3.2 16.1 0.00 0.03 0.03 71 1012.7
20260906065655 25 343 3.2 9.7 0.00 0.03 0.03 69 1012.7
20260906065217 26 46 3.2 9.7 0.00 0.03 0.03 68 1012.6
20260906064659 26 10 3.2 9.7 0.00 0.03 0.03 68 1012.4
20260906064135 26 355 3.2 11.3 0.00 0.03 0.03 67 1012.5
20260906063656 26 32 3.2 11.3 0.00 0.03 0.03 66 1012.5
20260906063137 26 355 4.8 14.5 0.00 0.03 0.03 65 1012.3
20260906062558 27 42 6.4 14.5 0.00 0.03 0.03 63 1012.3
20260906062106 27 359 4.8 14.5 0.00 0.03 0.03 62 1012.2
20260906061521 27 39 4.8 11.3 0.00 0.03 0.03 61 1012.2
20260906061247 27 9 6.4 14.5 0.00 0.03 0.03 60 1012.2
20260906060511 28 345 4.8 14.5 0.00 0.03 0.03 59 1012.3
20260906060016 28 301 3.2 11.3 0.00 0.03 0.03 59 1012.3
20260906055521 28 329 4.8 11.3 0.00 0.03 0.03 59 1012.0
20260906055035 28 340 3.2 11.3 0.00 0.03 0.03 60 1012.0
20260906054505 28 334 3.2 8.0 0.00 0.03 0.03 61 1012.1
20260906054016 28 62 3.2 8.0 0.00 0.03 0.03 60 1012.0
20260906053757 28 28 3.2 8.0 0.00 0.03 0.03 60 1012.2
20260906053016 28 321 3.2 8.0 0.00 0.03 0.03 59 1012.1
20260906052801 28 0 3.2 8.0 0.00 0.03 0.03 58 1012.2
20260906051958 28 24 3.2 8.0 0.00 0.03 0.03 58 1012.2
20260906051448 28 347 3.2 8.0 0.00 0.03 0.03 57 1012.2
20260906050946 29 59 4.8 9.7 0.00 0.03 0.03 58 1012.2
20260906050448 29 58 3.2 9.7 0.00 0.03 0.03 57 1012.1
20260906045941 29 43 3.2 11.3 0.00 0.03 0.03 58 1012.1
20260906045438 29 43 3.2 11.3 0.00 0.03 0.03 56 1012.2
20260906044938 29 68 3.2 8.0 0.00 0.03 0.03 55 1012.2
20260906044436 29 58 4.8 9.7 0.00 0.03 0.03 56 1012.0
20260906043936 29 346 4.8 9.7 0.00 0.03 0.03 55 1012.2
20260906043436 29 4 4.8 11.3 0.00 0.03 0.03 54 1012.2
20260906042934 29 68 3.2 11.3 0.00 0.03 0.03 55 1012.2
20260906042434 29 45 3.2 11.3 0.00 0.03 0.03 54 1012.2
20260906041934 29 3 3.2 11.3 0.00 0.03 0.03 55 1012.3
20260906041432 29 65 6.4 14.5 0.00 0.03 0.03 54 1012.2
20260906040930 29 4 6.4 14.5 0.00 0.03 0.03 53 1012.3
20260906040432 29 350 4.8 12.9 0.00 0.03 0.03 55 1012.2
20260906040137 29 54 4.8 14.5 0.00 0.03 0.03 54 1012.3
20260906035340 29 3 4.8 14.5 0.00 0.03 0.03 53 1012.3
20260906034815 29 61 4.8 14.5 0.00 0.03 0.03 56 1012.4
20260906034506 29 70 4.8 14.5 0.00 0.03 0.03 57 1012.5
20260906033719 29 41 4.8 11.3 0.00 0.03 0.03 56 1012.6
20260906033156 29 335 4.8 11.3 0.00 0.03 0.03 56 1012.7
20260906032624 29 20 6.4 16.1 0.00 0.03 0.03 55 1012.7
20260906032101 29 358 6.4 17.7 0.00 0.03 0.03 56 1012.8
20260906031539 29 349 4.8 16.1 0.00 0.03 0.03 57 1012.8
20260906031009 29 29 4.8 12.9 0.00 0.03 0.03 57 1012.9
20260906030441 29 43 4.8 12.9 0.00 0.03 0.03 57 1012.9
20260906025916 30 40 4.8 12.9 0.00 0.03 0.03 58 1013.0
20260906025349 30 59 3.2 11.3 0.00 0.03 0.03 56 1013.1
20260906025050 30 0 3.2 12.9 0.00 0.03 0.03 57 1013.2
20260906024300 30 351 4.8 12.9 0.00 0.03 0.03 57 1013.4
20260906023732 29 6 4.8 16.1 0.00 0.03 0.03 56 1013.4
20260906023202 29 64 4.8 16.1 0.00 0.03 0.03 57 1013.5
20260906022636 29 32 4.8 11.3 0.00 0.03 0.03 57 1013.5
20260906022111 29 54 4.8 16.1 0.00 0.03 0.03 60 1013.7
20260906021600 28 61 4.8 16.1 0.00 0.03 0.03 59 1013.8
20260906021100 29 317 4.8 14.5 0.00 0.03 0.03 59 1013.9
20260906020557 29 49 4.8 11.3 0.00 0.03 0.03 59 1014.0
20260906020107 29 10 3.2 11.3 0.00 0.03 0.03 59 1014.1
20260906015558 29 54 3.2 11.3 0.00 0.03 0.03 58 1014.1
20260906015058 29 45 3.2 11.3 0.00 0.03 0.03 58 1014.3
20260906014556 28 56 4.8 11.3 0.00 0.03 0.03 59 1014.4
20260906014057 28 323 4.8 11.3 0.00 0.03 0.03 58 1014.4
20260906013814 28 8 3.2 9.7 0.00 0.03 0.03 58 1014.5
20260906013050 28 63 3.2 9.7 0.00 0.03 0.03 59 1014.5
20260906012550 28 68 3.2 8.0 0.00 0.03 0.03 60 1014.6
20260906012050 28 48 3.2 11.3 0.00 0.03 0.03 59 1014.7
20260906011550 28 353 3.2 11.3 0.00 0.03 0.03 58 1014.8
20260906011048 28 313 4.8 12.9 0.00 0.03 0.03 57 1014.9
20260906010550 28 326 4.8 12.9 0.00 0.03 0.03 57 1015.0
20260906010028 28 47 4.8 9.7 0.00 0.03 0.03 58 1015.0
20260906005529 28 48 4.8 11.3 0.00 0.03 0.03 59 1015.1
20260906005233 28 314 4.8 11.3 0.00 0.03 0.03 58 1015.3
20260906004513 28 14 4.8 11.3 0.00 0.03 0.03 59 1015.3
20260906004007 28 55 3.2 9.7 0.00 0.03 0.03 58 1015.4
20260906003508 28 353 3.2 9.7 0.00 0.03 0.03 59 1015.5
20260906003019 28 70 3.2 8.0 0.00 0.03 0.03 59 1015.6
20260906002946 27 26 3.2 9.7 0.00 0.03 0.03 59 1015.6
20260906002000 27 66 3.2 9.7 0.00 0.03 0.03 59 1015.7
20260906001458 27 333 3.2 6.4 0.00 0.03 0.03 59 1015.8
20260906000957 27 19 3.2 8.0 0.00 0.03 0.03 60 1015.8
20260906000456 27 55 3.2 8.0 0.00 0.03 0.03 61 1015.8
20260905235954 27 58 1.6 6.4 0.00 0.03 0.03 61 1015.8
20260905235454 26 1 3.2 8.0 0.00 0.03 0.03 61 1015.9
20260905234954 26 13 3.2 8.0 0.00 0.03 0.03 62 1015.9
20260905234451 26 337 3.2 8.0 0.00 0.03 0.03 62 1015.9
20260905233954 26 13 1.6 11.3 0.00 0.03 0.03 64 1015.9
20260905233427 26 31 3.2 11.3 0.00 0.03 0.03 65 1015.7
20260905233149 25 358 3.2 11.3 0.00 0.03 0.03 65 1015.7
20260905232427 25 352 3.2 11.3 0.00 0.03 0.03 66 1015.8
20260905231926 25 35 4.8 11.3 0.00 0.03 0.03 68 1015.7
20260905231649 24 341 6.4 11.3 0.00 0.03 0.03 67 1015.6
20260905230926 24 344 6.4 16.1 0.00 0.03 0.03 69 1015.7
20260905230428 23 15 6.4 16.1 0.00 0.03 0.03 70 1015.6
20260905225924 23 25 6.4 12.9 0.00 0.03 0.03 72 1015.6
20260905225425 23 326 6.4 12.9 0.00 0.03 0.03 74 1015.8
20260905225144 23 347 4.8 9.7 0.00 0.03 0.03 77 1016.0
20260905224644 22 357 3.2 9.7 0.00 0.03 0.03 79 1016.1
20260905223924 22 1 1.6 4.8 0.00 0.03 0.03 83 1016.2
20260905223407 21 332 1.6 4.8 0.00 0.03 0.03 85 1016.2
20260905222906 21 327 1.6 4.8 0.00 0.03 0.03 86 1016.5
20260905222403 21 324 1.6 6.4 0.00 0.03 0.03 88 1016.5
20260905221904 20 330 1.6 6.4 0.00 0.03 0.03 89 1016.5
20260905221400 20 327 1.6 4.8 0.00 0.03 0.03 91 1016.5
20260905221119 20 327 1.6 4.8 0.00 0.03 0.03 92 1016.6
20260905220357 19 322 1.6 6.4 0.00 0.03 0.03 92 1016.5
20260905215859 19 229 1.6 6.4 0.00 0.03 0.03 93 1016.5
20260905215356 19 278 0.0 4.8 0.00 0.03 0.03 93 1016.5
20260905214855 18 281 1.6 3.2 0.00 0.03 0.03 94 1016.5
20260905214358 18 314 0.0 4.8 0.00 0.03 0.03 94 1016.2
20260905213850 18 314 1.6 6.4 0.00 0.03 0.03 94 1016.1
20260905213347 18 315 1.6 6.4 0.00 0.03 0.03 94 1015.9
20260905212846 18 319 1.6 6.4 0.00 0.03 0.03 95 1015.8
20260905212610 18 318 1.6 6.4 0.00 0.03 0.03 95 1015.8
20260905211836 18 324 3.2 9.7 0.00 0.03 0.03 95 1015.8
20260905211600 17 306 3.2 9.7 0.00 0.03 0.03 95 1015.8
20260905210835 17 301 3.2 6.4 0.00 0.03 0.03 95 1015.6
20260905210600 17 310 1.6 6.4 0.00 0.03 0.03 95 1015.6
20260905205832 17 335 0.0 4.8 0.00 0.03 0.03 95 1015.4
20260905205331 16 351 1.6 4.8 0.00 0.03 0.03 95 1015.5
20260905204827 16 352 1.6 4.8 0.00 0.03 0.03 95 1015.2
20260905204328 16 259 0.0 3.2 0.00 0.03 0.03 94 1015.4
20260905204027 16 258 0.0 0.0 0.00 0.03 0.03 94 1015.6
20260905203909 16 258 0.0 3.2 0.00 0.03 0.03 94 1015.5
20260905202818 16 258 0.0 0.0 0.00 0.03 0.03 94 1015.6
20260905202317 16 258 0.0 0.0 0.00 0.03 0.03 94 1015.8
20260905201750 16 258 0.0 0.0 0.00 0.03 0.03 94 1015.8
20260905201721 16 258 0.0 0.0 0.00 0.03 0.03 94 1015.9
20260905200952 16 258 0.0 0.0 0.00 0.03 0.03 94 1015.9
20260905200219 16 258 0.0 1.6 0.00 0.03 0.03 94 1015.8
20260905195722 16 258 0.0 1.6 0.00 0.03 0.03 94 1015.7
20260905195430 16 258 0.0 0.0 0.00 0.03 0.03 94 1015.9
20260905194929 16 258 0.0 0.0 0.00 0.03 0.03 94 1015.8
20260905194144 16 258 0.0 0.0 0.00 0.03 0.03 94 1015.8
20260905193644 16 258 0.0 0.0 0.00 0.03 0.03 94 1015.9
20260905193135 16 258 0.0 3.2 0.00 0.03 0.03 94 1015.9
20260905192634 16 258 0.0 3.2 0.00 0.03 0.03 94 1015.7
20260905192132 16 258 0.0 4.8 0.00 0.03 0.03 94 1015.9
20260905191630 16 258 1.6 4.8 0.00 0.03 0.03 94 1016.1
20260905191140 16 270 0.0 4.8 0.00 0.03 0.03 94 1016.0
20260905190848 16 14 0.0 1.6 0.00 0.03 0.03 94 1015.6
20260905190124 16 14 0.0 1.6 0.00 0.03 0.03 94 1015.6
20260905185623 16 14 0.0 3.2 0.00 0.03 0.03 94 1015.6
20260905185116 16 14 0.0 3.2 0.00 0.03 0.03 94 1015.5
20260905184613 16 14 0.0 3.2 0.00 0.03 0.03 94 1015.5
20260905184111 16 14 0.0 3.2 0.00 0.03 0.03 94 1015.6
20260905183613 16 10 0.0 1.6 0.00 0.03 0.03 94 1015.8
20260905183052 16 9 0.0 1.6 0.00 0.03 0.03 93 1015.9
20260905182553 16 9 0.0 1.6 0.00 0.03 0.03 93 1015.7
20260905182046 16 9 0.0 1.6 0.00 0.03 0.03 93 1015.9
20260905181555 16 9 0.0 1.6 0.00 0.03 0.03 93 1015.5
20260905181323 16 9 0.0 1.6 0.00 0.03 0.03 93 1015.4
20260905180543 16 9 0.0 3.2 0.00 0.03 0.03 93 1015.3
20260905180305 16 9 1.6 4.8 0.00 0.03 0.03 93 1015.4
20260905175541 15 10 0.0 4.8 0.00 0.03 0.03 93 1015.4
20260905175038 15 10 0.0 0.0 0.00 0.03 0.03 93 1015.3
20260905174538 15 10 0.0 0.0 0.00 0.03 0.03 93 1015.0
20260905174034 15 10 0.0 0.0 0.00 0.03 0.03 93 1014.9
20260905173531 15 10 0.0 0.0 0.00 0.03 0.03 92 1014.8
20260905173030 16 10 0.0 1.6 0.00 0.03 0.03 92 1014.8
20260905172531 16 10 0.0 1.6 0.00 0.03 0.03 92 1014.9
20260905172227 16 10 0.0 1.6 0.00 0.03 0.03 92 1014.9
20260905171438 16 10 0.0 3.2 0.00 0.05 0.03 92 1014.9
20260905170910 16 10 0.0 0.0 0.00 0.05 0.03 92 1014.8
20260905170559 16 10 0.0 0.0 0.00 0.05 0.03 92 1014.8
20260905170039 16 10 0.0 0.0 0.00 0.05 0.03 92 1014.8
20260905165251 16 10 0.0 0.0 0.00 0.05 0.03 92 1014.7
20260905164743 16 10 0.0 0.0 0.03 0.05 0.03 92 1014.8
20260905164242 16 10 0.0 0.0 0.03 0.05 0.03 92 1014.8
20260905163737 16 10 0.0 0.0 0.03 0.05 0.03 92 1014.9
20260905163234 16 10 0.0 0.0 0.03 0.05 0.03 92 1014.9
20260905162731 16 10 0.0 0.0 0.03 0.05 0.03 92 1015.1
20260905162231 16 10 0.0 0.0 0.03 0.05 0.03 92 1015.1
20260905161732 16 10 0.0 0.0 0.03 0.05 0.03 92 1015.1
20260905161231 16 10 0.0 0.0 0.03 0.05 0.03 92 1015.1
20260905160958 16 10 0.0 0.0 0.03 0.05 0.03 92 1015.2
20260905160448 16 10 0.0 0.0 0.03 0.05 0.03 92 1015.2
20260905155921 17 10 0.0 0.0 0.03 0.05 0.03 92 1015.4
20260905155807 17 10 0.0 0.0 0.03 0.05 0.03 92 1015.3
20260905154939 17 10 0.0 0.0 0.00 0.03 0.00 92 1015.4
20260905154443 17 10 0.0 0.0 0.00 0.03 0.00 92 1015.5
20260905153720 17 10 0.0 1.6 0.00 0.03 0.00 92 1015.5
20260905153153 17 10 0.0 1.6 0.00 0.03 0.00 92 1015.5
20260905152627 17 10 0.0 1.6 0.00 0.03 0.00 92 1015.6
20260905152057 17 10 0.0 3.2 0.00 0.03 0.00 92 1015.7
20260905151529 17 10 0.0 1.6 0.00 0.03 0.00 92 1015.6
20260905151006 17 10 0.0 0.0 0.00 0.03 0.00 92 1015.6
20260905150655 17 10 0.0 0.0 0.00 0.03 0.00 92 1015.7
20260905150137 17 10 0.0 0.0 0.00 0.03 0.00 92 1015.7
20260905145353 17 10 0.0 1.6 0.00 0.03 0.00 92 1015.7
20260905144855 17 10 0.0 1.6 0.00 0.03 0.00 92 1015.7
20260905144327 17 10 0.0 1.6 0.00 0.03 0.00 92 1015.6
20260905143800 17 10 0.0 1.6 0.00 0.03 0.00 91 1015.5
20260905143241 18 10 0.0 1.6 0.00 0.03 0.00 91 1015.5
20260905142713 18 10 0.0 1.6 0.00 0.03 0.00 91 1015.8
20260905142207 18 10 0.0 1.6 0.00 0.03 0.00 91 1016.0
20260905141916 18 10 0.0 1.6 0.00 0.03 0.00 91 1016.1
20260905141151 18 10 0.0 1.6 0.00 0.03 0.00 91 1016.1
20260905140648 18 10 0.0 1.6 0.00 0.03 0.00 91 1016.1
20260905140147 18 10 0.0 3.2 0.00 0.03 0.00 92 1016.1
20260905135909 18 10 0.0 3.2 0.00 0.03 0.03 92 1016.1
20260905135147 19 11 0.0 1.6 0.00 0.03 0.03 91 1016.2
20260905134641 19 11 0.0 1.6 0.00 0.03 0.03 91 1016.2
20260905134140 19 11 0.0 0.0 0.00 0.03 0.03 91 1016.1
20260905133637 19 11 0.0 0.0 0.00 0.03 0.03 91 1016.1
20260905133135 19 11 0.0 0.0 0.00 0.03 0.03 91 1016.0
20260905132635 19 11 0.0 1.6 0.00 0.03 0.03 92 1015.9
20260905132354 19 11 0.0 1.6 0.00 0.03 0.03 92 1015.9
20260905131631 19 11 0.0 1.6 0.00 0.03 0.03 92 1015.9
20260905131134 19 11 0.0 1.6 0.00 0.03 0.03 92 1016.0
20260905130610 20 11 0.0 0.0 0.00 0.03 0.03 92 1016.0
20260905130042 20 11 0.0 1.6 0.00 0.03 0.03 92 1016.0
20260905125738 20 11 0.0 1.6 0.00 0.03 0.03 92 1016.0
20260905125216 20 11 0.0 3.2 0.00 0.03 0.03 92 1016.1